Location: Newark
(44.2764°N, 5.2753°E)
Time: 10:43:43
(UTC+00:00)

ISS - Pass Details

Date: 24 January 2020
Orbit: 416 x 422 km, 51.6° (Epoch: 20 February)

Event Time Altitude Azimuth Distance (km) Brightness Sun altitude
Rises 17:19:09 0° 232° (SW) 2,367 1.7 -7.8°
Reaches altitude 10° 17:21:15 10° 230° (SW) 1,505 0.3 -8.2°
Maximum altitude 17:24:37 70° 147° (SSE) 452 -3.7 -8.8°
Enters shadow 17:27:34 13° 63° (ENE) 1,340 -1.9 -9.3°
